Location: *
(45.0500°N, 12.0500°E)
Time: 23:23:56
(UTC+00:00)

STARLINK-1138 - Pass Details

Date: 09 April 2020
Orbit: 549 x 551 km, 53.0° (Epoch: 29 May)

Event Time Altitude Azimuth Distance (km) Brightness Sun altitude
Rises 19:58:03 0° 302° (WNW) 2,727 8.7 -21.3°
Reaches altitude 10° 20:00:17 10° 304° (NW) 1,830 7.4 -21.6°
Maximum altitude 20:04:27 80° 30° (NNE) 564 3.5 -22.2°
Enters shadow 20:04:39 77° 72° (ENE) 570 3.5 -22.2°
